This demonstration page uses our WeatherBlox Daily Observations layout. Learn more.

39.92423, -83.80882

Hourly Observations for April 30, 2016

Temp ( °F °C ) Dew Point ( °F °C ) Humidity (%) Winds ( mph kmh ) Pressure ( in mb ) Visibility ( mi km ) Precip ( " mm )
12:56 am 00:56 Clear 49 9.4 45 7.2 86 86 E 7 11 30.13 1020 10 16.0934 0 0
1:56 am 01:56 Clear 48 8.8 45 7.2 90 90 ENE 7 11 30.12 1020 10 16.0934 0 0
2:56 am 02:56 Cloudy 49 9.4 44 6.6 83 83 ENE 10 17 30.09 1019 10 16.0934 0 0
3:56 am 03:56 Partly Cloudy 47 8.3 43 6.1 86 86 ENE 12 19 30.05 1018 10 16.0934 0 0
4:56 am 04:56 Mostly Clear 46 7.7 43 6.1 90 90 E 10 17 30.08 1019 10 16.0934 0 0
5:56 am 05:56 Cloudy 47 8.3 44 6.6 89 89 E 8 13 30.08 1019 10 16.0934 0 0
6:56 am 06:56 Mostly Cloudy 46 7.7 44 6.6 93 93 E 8 13 30.09 1019 10 16.0934 0 0
7:56 am 07:56 Mostly Cloudy 47 8.3 45 7.2 93 93 E 10 17 30.08 1019 10 16.0934 0 0
8:56 am 08:56 Mostly Cloudy 49 9.4 46 7.7 89 89 E 13 20 30.08 1019 10 16.0934 0 0
9:56 am 09:56 Mostly Cloudy 50 10 47 8.3 89 89 ENE 13 20 30.06 1018 10 16.0934 0 0
10:56 am 10:56 Mostly Cloudy with Light Rain 51 10.5 49 9.4 93 93 E 10 17 30.05 1018 6 9.65604 0 0.0254
11:56 am 11:56 Cloudy 51 10.5 49 9.4 93 93 SE 6 9 30.09 1019 9 14.48406 0 0.0254
12:22 pm 12:22 Cloudy with Mist and Fog 52 11 48 9 88 88 SSE 8 13 30.09 1019 2.5 4.02335 0.02 0.508
12:29 pm 12:29 Cloudy with Light Rain 52 11 50 10 94 94 SSE 8 13 30.09 1019 4 6.43736 0.02 0.508
12:47 pm 12:47 Cloudy with Light Rain 52 11 50 10 94 94 SSE 6 9 30.09 1019 4 6.43736 0.03 0.762
12:56 pm 12:56 Cloudy with Light Rain 51 10.5 50 10 97 97 SSE 8 13 30.1 1019 4 6.43736 0.03 0.762
1:06 pm 13:06 Cloudy with Light Rain 52 11 52 11 100 100 ESE 6 9 30.09 1019 3 4.82802 0.01 0.254
1:19 pm 13:19 Cloudy with Light Rain 52 11 52 11 100 100 E 10 17 30.09 1019 2.5 4.02335 0.03 0.762
1:44 pm 13:44 Cloudy with Light Rain 52 11 52 11 100 100 E 13 20 30.06 1018 3 4.82802 0.04 1.016
1:56 pm 13:56 Cloudy with Light Rain 52 11.1 52 11.1 100 100 E 10 17 30.05 1018 3 4.82802 0.05 1.27
2:21 pm 14:21 Cloudy with Mist and Fog 52 11 52 11 100 100 E 14 22 30.03 1017 2.5 4.02335 0.02 0.508
2:42 pm 14:42 Cloudy with Mist and Fog 54 12 54 12 100 100 E 13 20 30.03 1017 3 4.82802 0.03 0.762
2:56 pm 14:56 Mostly Cloudy with Mist and Fog 53 11.6 53 11.6 100 100 E 10 17 30.03 1017 2.5 4.02335 0.04 1.016
3:10 pm 15:10 Cloudy with Mist and Fog 54 12 54 12 100 100 E 10 17 30.03 1017 3 4.82802 0.01 0.254
3:23 pm 15:23 Cloudy with Mist and Fog 54 12 54 12 100 100 E 13 20 30 1016 2.5 4.02335 0.01 0.254
3:31 pm 15:31 Mostly Cloudy with Mist and Fog 54 12 54 12 100 100 E 13 20 30 1016 2.5 4.02335 0.02 0.508
3:44 pm 15:44 Mostly Cloudy with Mist and Fog 54 12 54 12 100 100 ESE 14 22 29.97 1015 3 4.82802 0.02 0.508
3:56 pm 15:56 Mostly Cloudy with Mist and Fog 55 12.7 55 12.7 100 100 E 16 26 29.97 1015 3 4.82802 0.02 0.508
4:56 pm 16:56 Mostly Cloudy with Mist and Fog 55 12.7 55 12.7 100 100 ESE 13 20 29.96 1015 6 9.65604 0.02 0.508
5:18 pm 17:18 Cloudy with Mist and Fog 55 13 55 13 100 100 E 15 24 29.94 1014 6 9.65604 0 0
5:56 pm 17:56 Cloudy 55 12.7 55 12.7 100 100 ESE 15 24 29.94 1014 10 16.0934 0 0
6:21 pm 18:21 Cloudy with Light Rain 55 13 55 13 100 100 ESE 12 19 29.94 1014 2 3.21868 0.06 1.524
6:29 pm 18:29 Cloudy 55 13 55 13 100 100 ESE 7 11 29.97 1015 10 16.0934 0.06 1.524
6:56 pm 18:56 Cloudy with Light Rain 56 13.3 56 13.3 100 100 E 3 6 29.98 1015 1.5 2.41401 0.11 2.794
7:09 pm 19:09 Mostly Cloudy with Light Rain 55 13 55 13 100 100 Calm 29.97 1015 2.5 4.02335 0.02 0.508
7:16 pm 19:16 Cloudy with Mist and Fog 55 13 55 13 100 100 E 3 6 29.97 1015 6 9.65604 0.02 0.508
7:33 pm 19:33 Cloudy with Light Rain 55 13 55 13 100 100 ESE 8 13 29.94 1014 3 4.82802 0.03 0.762
7:56 pm 19:56 Cloudy with Mist and Fog 55 12.7 55 12.7 100 100 SE 8 13 29.96 1015 6 9.65604 0.04 1.016
8:20 pm 20:20 Cloudy with Light Rain 55 13 55 13 100 100 SSE 8 13 29.97 1015 3 4.82802 0.03 0.762
8:27 pm 20:27 Cloudy with Light Rain 55 13 55 13 100 100 SE 10 17 29.94 1014 2 3.21868 0.06 1.524
8:41 pm 20:41 Mostly Cloudy with Light Rain 55 13 55 13 100 100 SE 9 15 29.94 1014 5 8.0467 0.08 2.032
8:56 pm 20:56 Mostly Cloudy 55 12.7 55 12.7 100 100 SE 10 17 29.94 1014 7 11.26538 0.08 2.032
9:09 pm 21:09 Mostly Cloudy 55 13 55 13 100 100 SE 10 17 29.94 1014 8 12.87472 0 0
9:17 pm 21:17 Mostly Cloudy 55 13 55 13 100 100 ESE 10 17 29.94 1014 8 12.87472 0 0
9:56 pm 21:56 Cloudy 56 13.3 56 13.3 100 100 SE 12 19 29.92 1013 10 16.0934 0 0
10:56 pm 22:56 Cloudy 57 13.8 57 13.8 100 100 SE 8 13 29.92 1013 7 11.26538 0.01 0.254
11:34 pm 23:34 Cloudy 57 14 57 14 100 100 SSE 7 11 29.91 1013 7 11.26538 0 0
11:56 pm 23:56 Cloudy 57 13.8 57 13.8 100 100 SSE 9 15 29.91 1013 10 16.0934 0 0

Powered by AerisWeather